BEIDOU-2 G7

Last updated on Sat Apr 13 2024 01:02:39 GMT+0100 (British Summer Time)

1 41586U 16037A 24103.64177834 -.00000362 00000+0 00000+0 0 9991 2 41586 1.7504 68.7588 0009035 322.6280 151.5102 1.00272862 28817
UTC large
Height (km)
Speed (km/s)
/
Latitude / Longitude
Inclination (degrees)
Orbital Period (minutes)
Azimuth
Elevation
Range (km)
Doppler Factor

Next 0 passes for location: London (51.5072 / 0.1276)

Sorry there are no passes over London.